• Em Portugal
  • Lista de países
  • Para 7 dias
  • Temperatura da água
  • Mapas de satélite
  • Mapa do tempo
  • Widgets de tempo
  • user-avatar
    Iniciar Sessão

    Previsão horária em Gaborone

    Hoje, 21 Novembro, Terça-feira

    Tempo Temperatura Precipitação Vento Pressão Humidade
    00:00 +28°C° 0 mm 3 m/s 677 mmHg 36%
    01:00 +28°C° 0 mm 2 m/s 677 mmHg 37%
    02:00 +27°C° 0 mm 1 m/s 676 mmHg 39%
    03:00 +27°C° 0 mm 2 m/s 676 mmHg 38%
    04:00 +26°C° 0 mm 3 m/s 676 mmHg 37%
    05:00 +26°C° 0 mm 4 m/s 676 mmHg 36%
    06:00 +27°C° 0 mm 5 m/s 676 mmHg 31%
    07:00 +29°C° 0 mm 5 m/s 677 mmHg 26%
    08:00 +30°C° 0 mm 6 m/s 677 mmHg 21%
    09:00 +33°C° 0 mm 6 m/s 678 mmHg 18%
    10:00 +35°C° 0 mm 6 m/s 678 mmHg 16%
    11:00 +39°C° 0 mm 6 m/s 678 mmHg 14%
    12:00 +39°C° 0 mm 5 m/s 677 mmHg 14%
    13:00 +38°C° 0 mm 4 m/s 677 mmHg 13%
    14:00 +40°C° 0 mm 4 m/s 676 mmHg 13%
    15:00 +38°C° 0 mm 4 m/s 676 mmHg 14%
    16:00 +37°C° 0 mm 4 m/s 675 mmHg 15%
    17:00 +37°C° 0 mm 4 m/s 675 mmHg 16%
    18:00 +34°C° 0 mm 5 m/s 675 mmHg 23%
    19:00 +32°C° 0 mm 6 m/s 675 mmHg 29%
    20:00 +28°C° 0 mm 7 m/s 675 mmHg 36%
    21:00 +28°C° 0,1 mm 6 m/s 675 mmHg 38%
    22:00 +27°C° 0,1 mm 4 m/s 676 mmHg 40%
    23:00 +27°C° 0,1 mm 3 m/s 676 mmHg 43%

    Amanhã, 22 Novembro, Quarta-feira

    Tempo Temperatura Precipitação Vento Pressão Humidade
    00:00 +27°C° 0 mm 2 m/s 676 mmHg 43%
    01:00 +26°C° 0 mm 2 m/s 675 mmHg 43%
    02:00 +26°C° 0 mm 1 m/s 675 mmHg 44%
    03:00 +26°C° 0 mm 1 m/s 675 mmHg 45%
    04:00 +25°C° 0 mm 1 m/s 675 mmHg 47%
    05:00 +25°C° 0 mm 1 m/s 675 mmHg 48%
    06:00 +26°C° 0,1 mm 1 m/s 675 mmHg 45%
    07:00 +27°C° 0,1 mm 1 m/s 676 mmHg 41%
    08:00 +28°C° 0,1 mm 1 m/s 677 mmHg 38%
    09:00 +30°C° 0 mm 1 m/s 677 mmHg 33%
    10:00 +32°C° 0 mm 2 m/s 677 mmHg 28%
    11:00 +35°C° 0 mm 2 m/s 677 mmHg 24%
    12:00 +36°C° 0 mm 2 m/s 676 mmHg 22%
    13:00 +37°C° 0 mm 3 m/s 676 mmHg 20%
    14:00 +38°C° 0 mm 3 m/s 675 mmHg 18%
    15:00 +37°C° 0 mm 3 m/s 675 mmHg 18%
    16:00 +37°C° 0 mm 4 m/s 674 mmHg 18%
    17:00 +37°C° 0 mm 4 m/s 674 mmHg 18%
    18:00 +35°C° 0,1 mm 3 m/s 674 mmHg 20%
    19:00 +34°C° 0,1 mm 3 m/s 674 mmHg 21%
    20:00 +31°C° 0,1 mm 2 m/s 675 mmHg 23%
    21:00 +31°C° 0 mm 2 m/s 675 mmHg 22%
    22:00 +30°C° 0 mm 3 m/s 675 mmHg 21%
    23:00 +29°C° 0 mm 3 m/s 676 mmHg 20%

    Depois de amanhã, 23 Novembro, Quinta-feira

    Tempo Temperatura Precipitação Vento Pressão Humidade
    00:00 +28°C° 0 mm 3 m/s 675 mmHg 17%
    01:00 +27°C° 0 mm 3 m/s 675 mmHg 14%
    02:00 +26°C° 0 mm 4 m/s 675 mmHg 11%
    03:00 +25°C° 0 mm 3 m/s 675 mmHg 12%
    04:00 +24°C° 0 mm 3 m/s 675 mmHg 13%
    05:00 +24°C° 0 mm 2 m/s 675 mmHg 14%
    06:00 +25°C° 0 mm 2 m/s 675 mmHg 14%
    07:00 +27°C° 0 mm 3 m/s 676 mmHg 13%
    08:00 +29°C° 0 mm 3 m/s 677 mmHg 13%
    09:00 +31°C° 0 mm 3 m/s 677 mmHg 13%
    10:00 +34°C° 0 mm 3 m/s 677 mmHg 13%
    11:00 +36°C° 0 mm 3 m/s 678 mmHg 12%
    12:00 +37°C° 0 mm 3 m/s 677 mmHg 12%
    13:00 +37°C° 0 mm 3 m/s 676 mmHg 12%
    14:00 +38°C° 0 mm 3 m/s 676 mmHg 13%
    15:00 +37°C° 0 mm 3 m/s 675 mmHg 13%
    16:00 +37°C° 0 mm 3 m/s 675 mmHg 14%
    17:00 +36°C° 0 mm 3 m/s 675 mmHg 15%
    18:00 +34°C° 0 mm 3 m/s 675 mmHg 19%
    19:00 +33°C° 0 mm 3 m/s 675 mmHg 22%
    20:00 +30°C° 0 mm 3 m/s 676 mmHg 25%
    21:00 +29°C° 0 mm 3 m/s 676 mmHg 31%
    22:00 +28°C° 0 mm 4 m/s 676 mmHg 37%
    23:00 +27°C° 0 mm 4 m/s 676 mmHg 42%

    24 Novembro, Sexta-feira

    Tempo Temperatura Precipitação Vento Pressão Humidade
    00:00 +27°C° 0,1 mm 4 m/s 676 mmHg 47%
    01:00 +26°C° 0,1 mm 3 m/s 676 mmHg 51%
    02:00 +25°C° 0,1 mm 3 m/s 676 mmHg 55%
    03:00 +25°C° 0 mm 3 m/s 676 mmHg 58%
    04:00 +24°C° 0 mm 3 m/s 676 mmHg 62%
    05:00 +24°C° 0 mm 3 m/s 676 mmHg 65%
    06:00 +25°C° 0 mm 4 m/s 677 mmHg 61%
    07:00 +26°C° 0 mm 5 m/s 678 mmHg 58%
    08:00 +27°C° 0 mm 5 m/s 678 mmHg 54%
    09:00 +28°C° 0,9 mm 4 m/s 678 mmHg 50%
    10:00 +29°C° 0,9 mm 4 m/s 679 mmHg 47%
    11:00 +30°C° 0,9 mm 3 m/s 679 mmHg 43%
    12:00 +29°C° 1,1 mm 3 m/s 678 mmHg 46%
    13:00 +28°C° 1,1 mm 3 m/s 677 mmHg 50%
    14:00 +28°C° 1,1 mm 3 m/s 676 mmHg 54%
    15:00 +28°C° 0,1 mm 3 m/s 676 mmHg 52%
    16:00 +29°C° 0,1 mm 2 m/s 676 mmHg 50%
    17:00 +29°C° 0,1 mm 2 m/s 676 mmHg 47%
    18:00 +27°C° 2 mm 2 m/s 676 mmHg 54%
    19:00 +26°C° 2 mm 3 m/s 676 mmHg 60%
    20:00 +24°C° 2 mm 3 m/s 676 mmHg 66%
    21:00 +24°C° 0,2 mm 3 m/s 676 mmHg 66%
    22:00 +24°C° 0,2 mm 2 m/s 676 mmHg 67%
    23:00 +23°C° 0,2 mm 2 m/s 676 mmHg 67%

    25 Novembro, Sábado

    Tempo Temperatura Precipitação Vento Pressão Humidade
    00:00 +23°C° 0 mm 2 m/s 676 mmHg 69%
    01:00 +23°C° 0 mm 1 m/s 675 mmHg 70%
    02:00 +23°C° 0 mm 1 m/s 675 mmHg 72%
    03:00 +22°C° 0 mm 1 m/s 675 mmHg 73%
    04:00 +22°C° 0 mm 1 m/s 675 mmHg 75%
    05:00 +22°C° 0 mm 1 m/s 675 mmHg 76%
    06:00 +23°C° 0 mm 1 m/s 676 mmHg 70%
    07:00 +25°C° 0 mm 1 m/s 677 mmHg 64%
    08:00 +26°C° 0 mm 1 m/s 677 mmHg 58%
    09:00 +28°C° 0 mm 2 m/s 677 mmHg 47%
    10:00 +30°C° 0 mm 2 m/s 677 mmHg 36%
    11:00 +33°C° 0 mm 3 m/s 677 mmHg 25%
    12:00 +35°C° 0 mm 3 m/s 676 mmHg 20%
    13:00 +36°C° 0 mm 4 m/s 676 mmHg 15%
    14:00 +37°C° 0 mm 5 m/s 675 mmHg 10%
    15:00 +37°C° 0 mm 5 m/s 675 mmHg 9%
    16:00 +37°C° 0 mm 5 m/s 675 mmHg 8%
    17:00 +37°C° 0 mm 5 m/s 675 mmHg 7%
    18:00 +35°C° 0 mm 4 m/s 675 mmHg 8%
    19:00 +33°C° 0 mm 3 m/s 675 mmHg 10%
    20:00 +30°C° 0 mm 2 m/s 675 mmHg 11%
    21:00 +29°C° 0 mm 1 m/s 675 mmHg 12%
    22:00 +28°C° 0 mm 1 m/s 675 mmHg 13%
    23:00 +27°C° 0 mm 1 m/s 675 mmHg 14%

    26 Novembro, Domingo

    Tempo Temperatura Precipitação Vento Pressão Humidade
    00:00 +26°C° 0 mm 2 m/s 675 mmHg 17%
    01:00 +26°C° 0 mm 2 m/s 674 mmHg 21%
    02:00 +25°C° 0 mm 2 m/s 674 mmHg 25%
    03:00 +24°C° 0 mm 3 m/s 675 mmHg 37%
    04:00 +22°C° 0 mm 3 m/s 675 mmHg 49%
    05:00 +21°C° 0 mm 4 m/s 675 mmHg 61%
    06:00 +22°C° 0 mm 4 m/s 676 mmHg 61%
    07:00 +23°C° 0 mm 5 m/s 676 mmHg 61%
    08:00 +23°C° 0 mm 5 m/s 677 mmHg 60%
    09:00 +27°C° 0 mm 5 m/s 677 mmHg 52%
    10:00 +29°C° 0 mm 5 m/s 677 mmHg 44%
    11:00 +32°C° 0 mm 4 m/s 677 mmHg 36%
    12:00 +34°C° 0 mm 4 m/s 676 mmHg 30%
    13:00 +35°C° 0 mm 3 m/s 676 mmHg 23%
    14:00 +37°C° 0 mm 2 m/s 675 mmHg 17%
    15:00 +37°C° 0 mm 2 m/s 675 mmHg 15%
    16:00 +37°C° 0 mm 2 m/s 674 mmHg 13%
    17:00 +38°C° 0 mm 2 m/s 674 mmHg 11%
    18:00 +36°C° 0 mm 2 m/s 674 mmHg 12%
    19:00 +34°C° 0 mm 2 m/s 674 mmHg 14%
    20:00 +31°C° 0 mm 1 m/s 674 mmHg 15%
    21:00 +30°C° 0 mm 1 m/s 674 mmHg 15%
    22:00 +29°C° 0 mm 1 m/s 674 mmHg 16%
    23:00 +28°C° 0 mm 1 m/s 674 mmHg 16%
    Mostrar mais